Stations météo

réclame
Mon MeteoGroup
Marseille/Marignane, France (7650): Température de l'air & dewpoint: 13.09.2019 12:00:00 - 19.09.2019 12:00:00 (CEST)Marseille/Marignane, France (7650): Température de l'air 5cm: 13.09.2019 12:00:00 - 19.09.2019 12:00:00 (CEST)Marseille/Marignane, France (7650): Température de l'air -20cm & Température de l'air -100cm: 13.09.2019 12:00:00 - 19.09.2019 12:00:00 (CEST)Marseille/Marignane, France (7650): Vitesse du vent & gusts: 13.09.2019 12:00:00 - 19.09.2019 12:00:00 (CEST)Marseille/Marignane, France (7650): Direction du vent: 13.09.2019 12:00:00 - 19.09.2019 12:00:00 (CEST)Marseille/Marignane, France (7650): reduced air pressure: 13.09.2019 12:00:00 - 19.09.2019 12:00:00 (CEST)Marseille/Marignane, France (7650): visibility: 13.09.2019 12:00:00 - 19.09.2019 12:00:00 (CEST)Marseille/Marignane, France (7650): Ensoleillement: 13.09.2019 12:00:00 - 19.09.2019 12:00:00 (CEST)Marseille/Marignane, France (7650): Quantités de précipitations: 13.09.2019 12:00:00 - 19.09.2019 12:00:00 (CEST)
Date & Time tt [°C] td [°C] tt 5cm [°C] tt -20cm [°C] tt -100cm [°C] ff [km/h] ff [knt] fx [km/h] fx [knt] dd ppp [hPa] vv [km] sd [min] rr [mm]
19.09.2019 12:00:00 23,5 12,8 28,1 22,6 22,3 18 10 24 13 W 1016,9 20 60 0,0
19.09.2019 11:00:00 22,4 12,3 25,0 22,3 22,3 11 6 17 9 WSW 1016,8 29 60 0,0
19.09.2019 10:00:00 20,5 12,2 23,0 22,3 22,3 8 4 20 11 W 1016,5 39 60 0,0
19.09.2019 09:00:00 18,9 11,9 18,8 22,5 22,2 12 7 24 13 N 1016,1 37 49 0,0
19.09.2019 08:00:00 18,1 11,6 17,2 22,8 22,3 11 6 29 16 NNW 1015,9 45 0 0,0
19.09.2019 07:00:00 18,4 11,0 16,9 23,1 22,2 18 10 29 16 NW 1015,8 50 0 0,0
19.09.2019 06:00:00 18,6 11,2 16,0 23,5 22,3 14 7 19 10 NW 1015,5 52 0 0,0
19.09.2019 05:00:00 18,2 13,1 15,1 23,8 22,2 9 5 13 7 NW 1015,5 36 0 0,0
19.09.2019 04:00:00 20,1 12,6 18,6 24,2 22,3 10 5 14 7 N 1015,8 47 0 0,0
19.09.2019 03:00:00 21,3 13,2 20,1 24,5 22,3 11 6 19 10 NW 1016,1 34 0 0,0
19.09.2019 02:00:00 21,3 13,0 20,6 24,8 22,3 9 5 16 9 NW 1015,8 50 0 0,0
19.09.2019 01:00:00 21,5 12,9 20,0 25,2 22,3 14 8 25 14 N 1015,4 47 0 0,0
19.09.2019 00:00:00 22,1 17,2 21,5 25,5 22,3 18 10 29 16 N 1015,9 19 0 0,0
18.09.2019 23:00:00 22,4 20,3 21,3 25,8 22,2 19 10 24 13 WNW 1016,6 9 0 0,0
18.09.2019 22:00:00 22,0 20,1 20,8 26,2 22,3 10 6 18 10 W 1016,8 9 0 0,0
18.09.2019 21:00:00 22,4 19,9 21,4 26,5 22,3 9 5 16 9 WSW 1016,1 10 0 0,0
18.09.2019 20:00:00 22,7 19,7 22,0 26,7 22,3 10 6 22 12 S 1015,3 11 0 0,0
18.09.2019 19:00:00 24,3 19,1 25,4 26,7 22,2 14 8 22 12 S 1014,7 14 55 0,0
18.09.2019 18:00:00 25,3 19,2 28,8 26,5 22,2 16 9 29 16 S 1014,4 15 60 0,0
18.09.2019 17:00:00 25,8 19,7 29,8 26,1 22,2 19 10 28 15 S 1014,4 10 35 0,0
18.09.2019 16:00:00 25,6 19,7 28,1 25,7 22,3 14 8 22 12 S 1014,8 12 0 0,0
18.09.2019 15:00:00 25,9 19,3 29,2 25,0 22,3 11 6 17 9 W 1015,0 17 45 0,0
18.09.2019 14:00:00 26,2 19,3 31,4 24,2 22,2 11 6 16 9 W 1015,4 10 60 0,0
18.09.2019 13:00:00 25,2 18,6 29,1 23,5 22,2 13 7 17 9 W 1015,4 9 56 0,0
18.09.2019 12:00:00 24,6 18,3 28,0 23,1 22,3 9 5 14 8 WNW 1015,4 14 35 0,0
18.09.2019 11:00:00 23,3 17,7 25,3 22,7 22,2 7 4 16 9 NNW 1015,2 19 37 0,0
18.09.2019 10:00:00 23,2 17,6 22,9 22,7 22,3 4 2 14 8 E 1015,0 13 46 0,0
18.09.2019 09:00:00 21,2 17,2 20,1 22,8 22,2 7 4 20 11 NE 1014,4 15 45 0,0
18.09.2019 08:00:00 19,7 17,1 17,2 23,1 22,2 7 4 16 9 ENE 1013,8 13 1 0,0
18.09.2019 07:00:00 19,3 16,3 16,9 23,4 22,3 5 3 14 7 S 1013,8 12 0 0,0
18.09.2019 06:00:00 19,4 16,6 16,5 23,7 22,3 6 4 11 6 NE 1013,9 13 0 0,0
18.09.2019 05:00:00 19,8 17,8 17,3 24,0 22,2 4 2 9 5 ESE 1014,1 8 0 0,0
18.09.2019 04:00:00 20,4 18,7 17,8 24,3 22,2 5 3 12 6 E 1014,1 9 0 0,0
18.09.2019 03:00:00 19,7 18,2 18,0 24,6 22,2 10 5 11 6 SE 1014,4 8 0 0,0
18.09.2019 02:00:00 20,2 19,0 18,4 25,0 22,2 9 5 12 6 SE 1014,7 9 0 0,0
18.09.2019 01:00:00 20,3 18,8 18,8 25,4 22,2 10 5 13 7 SSE 1014,6 10 0 0,0
18.09.2019 00:00:00 21,1 18,7 19,3 25,8 22,3 8 4 14 7 SE 1014,6 12 0 0,0
17.09.2019 23:00:00 21,2 18,8 20,0 26,3 22,2 7 4 10 6 SE 1014,3 13 0 0,0
17.09.2019 22:00:00 22,1 19,3 20,2 26,7 22,2 5 3 10 5 S 1014,4 11 0 0,0
17.09.2019 21:00:00 22,5 19,5 21,5 27,1 22,2 8 4 21 11 S 1014,2 19 0 0,0
17.09.2019 20:00:00 23,2 19,4 22,6 27,3 22,3 14 7 21 12 S 1013,8 22 25 0,0
17.09.2019 19:00:00 24,9 17,4 26,5 27,3 22,2 18 10 26 14 S 1013,6 33 60 0,0
17.09.2019 18:00:00 27,1 16,4 31,1 27,1 22,2 18 10 26 14 S 1013,6 34 60 0,0
17.09.2019 17:00:00 28,0 16,9 33,6 26,6 22,2 21 11 30 16 S 1013,6 28 60 0,0
17.09.2019 16:00:00 28,9 17,1 34,6 25,8 22,2 20 11 26 14 SSW 1014,0 26 60 0,0
17.09.2019 15:00:00 29,6 18,4 34,8 25,0 22,2 13 7 26 14 SW 1014,6 20 60 0,0
17.09.2019 14:00:00 28,5 17,1 33,6 24,1 22,3 9 5 13 7 W 1015,2 20 60 0,0
17.09.2019 13:00:00 26,6 14,4 31,3 23,2 22,2 8 4 15 8 W 1016,0 20 60 0,0
17.09.2019 12:00:00 25,5 15,8 29,1 22,6 22,2 10 5 13 7 W 1016,3 20 60 0,0
17.09.2019 11:00:00 23,6 15,4 29,0 22,2 22,2 6 3 10 5 WNW 1016,6 20 60 0,0
17.09.2019 10:00:00 23,2 16,3 25,2 22,1 22,2 4 2 9 5 W 1016,6 19 60 0,0
17.09.2019 09:00:00 21,1 15,4 18,6 22,3 22,2 6 4 11 6 SE 1016,3 18 51 0,0
17.09.2019 08:00:00 18,2 15,1 14,9 22,6 22,2 3 2 9 5 SSE 1016,3 17 1 0,0
17.09.2019 07:00:00 17,8 13,9 15,5 22,9 22,2 7 4 11 6 SE 1016,1 20 0 0,0
17.09.2019 06:00:00 17,6 14,5 15,4 23,2 22,2 8 4 9 5 SE 1016,1 18 0 0,0
17.09.2019 05:00:00 17,7 14,4 15,4 23,6 22,2 6 4 10 6 SE 1016,3 25 0 0,0
17.09.2019 04:00:00 18,3 14,8 15,6 23,9 22,2 5 3 8 4 SE 1016,6 21 0 0,0
17.09.2019 03:00:00 18,6 15,3 16,5 24,3 22,2 6 4 11 6 SE 1017,1 22 0 0,0
17.09.2019 02:00:00 18,6 15,3 16,4 24,7 22,2 9 5 12 6 SE 1017,4 24 0 0,0
17.09.2019 01:00:00 19,7 15,3 17,0 25,2 22,2 3 1 11 6 N 1017,9 25 0 0,0
17.09.2019 00:00:00 19,7 15,6 17,6 25,6 22,2 9 5 12 6 SE 1018,1 25 0 0,0
16.09.2019 23:00:00 21,3 16,0 18,4 26,1 22,2 3 2 6 3 S 1018,1 23 0 0,0
16.09.2019 22:00:00 22,3 15,9 19,0 26,6 22,2 5 3 8 5 SE 1018,0 29 0 0,0
16.09.2019 21:00:00 22,2 15,1 20,2 27,0 22,2 5 3 10 6 SSE 1017,9 32 0 0,0
16.09.2019 20:00:00 23,6 15,6 22,1 27,4 22,2 5 3 11 6 SSW 1017,6 35 27 0,0
16.09.2019 19:00:00 25,1 15,1 26,8 27,4 22,2 8 4 22 12 SSW 1017,4 35 60 0,0
16.09.2019 18:00:00 25,9 17,5 30,0 27,2 22,2 11 6 27 15 S 1017,6 22 60 0,0
16.09.2019 17:00:00 27,1 18,7 32,7 26,7 22,3 19 10 27 15 S 1017,7 27 60 0,0
16.09.2019 16:00:00 28,4 18,2 34,4 26,0 22,2 21 12 36 19 S 1017,7 20 60 0,0
16.09.2019 15:00:00 31,5 16,3 36,2 25,2 22,2 14 8 22 12 WSW 1017,7 23 60 0,0
16.09.2019 14:00:00 30,6 14,7 36,2 24,3 22,2 14 8 32 17 WSW 1018,2 17 60 0,0
16.09.2019 13:00:00 29,9 15,2 35,5 23,5 22,3 12 6 27 14 WSW 1018,9 10 60 0,0
16.09.2019 12:00:00 28,4 15,7 32,5 22,8 22,2 6 4 12 6 W 1019,7 8 60 0,0
16.09.2019 11:00:00 26,6 15,9 30,3 22,4 22,2 6 4 11 6 W 1020,2 8 60 0,0
16.09.2019 10:00:00 24,5 17,2 25,7 22,3 22,3 5 3 14 8 NNE 1020,5 11 60 0,0
16.09.2019 09:00:00 22,3 17,7 19,5 22,5 22,2 5 3 9 5 ESE 1020,5 10 50 0,0
16.09.2019 08:00:00 19,2 16,8 17,3 22,7 22,2 6 4 12 6 SSE 1020,4 11 0 0,0
16.09.2019 07:00:00 19,2 16,8 16,7 23,0 22,2 8 4 9 5 SE 1020,3 13 0 0,0
16.09.2019 06:00:00 19,5 17,1 16,6 23,3 22,2 2 1 8 4 SSW 1020,1 13 0 0,0
16.09.2019 05:00:00 20,9 18,3 17,7 23,5 22,3 4 2 9 5 NE 1020,3 12 0 0,0
16.09.2019 04:00:00 21,5 17,9 19,6 23,8 22,3 4 2 9 5 S 1020,3 17 0 0,0
16.09.2019 03:00:00 22,2 18,4 19,8 24,0 22,3 4 2 9 5 ENE 1020,6 17 0 0,0
16.09.2019 02:00:00 21,5 17,3 19,5 24,3 22,3 4 2 17 9 SE 1021,3 20 0 0,0
16.09.2019 01:00:00 20,8 17,2 19,0 24,7 22,3 11 6 13 7 SE 1021,2 19 0 0,0
16.09.2019 00:00:00 21,7 18,5 18,8 25,1 22,3 4 2 16 9 N 1021,5 18 0 0,0
15.09.2019 23:00:00 22,6 18,8 21,0 25,3 22,3 8 4 9 5 WSW 1021,4 18 0 0,0
15.09.2019 22:00:00 23,6 17,8 21,7 25,7 22,3 3 1 9 5 SW 1021,3 26 0 0,0
15.09.2019 21:00:00 24,0 18,0 23,1 26,0 22,3 7 4 13 7 NW 1021,3 29 0 0,0
15.09.2019 20:00:00 24,4 17,6 23,6 26,2 22,3 5 3 11 6 WNW 1021,4 33 0 0,0
15.09.2019 19:00:00 25,3 17,5 25,5 26,3 22,3 8 5 21 12 SW 1021,8 34 0 0,0
15.09.2019 18:00:00 25,9 17,0 27,1 26,1 22,3 14 7 30 16 SSW 1022,3 38 13 0,0
15.09.2019 17:00:00 27,8 16,4 32,6 25,5 22,3 23 13 35 19 S 1022,2 31 60 0,0
15.09.2019 16:00:00 29,4 15,5 34,7 24,8 22,3 18 10 30 16 SSW 1022,2 32 60 0,0
15.09.2019 15:00:00 29,8 15,1 35,4 23,9 22,3 20 11 28 15 S 1022,9 31 60 0,0
15.09.2019 14:00:00 30,2 13,9 34,0 23,0 22,3 13 7 16 9 W 1023,4 25 60 0,0
15.09.2019 13:00:00 28,1 15,7 31,7 22,3 22,3 13 7 18 10 W 1024,1 21 60 0,0
15.09.2019 12:00:00 26,4 16,3 30,0 21,6 22,3 11 6 16 9 W 1024,2 20 60 0,0
15.09.2019 11:00:00 26,4 15,7 28,6 21,2 22,3 6 4 14 7 W 1024,2 20 60 0,0
15.09.2019 10:00:00 23,2 15,8 24,9 21,1 22,3 3 1 9 5 W 1024,2 25 60 0,0
15.09.2019 09:00:00 20,7 15,9 17,4 21,3 22,3 5 3 10 5 NNE 1024,3 24 22 0,0
15.09.2019 08:00:00 18,3 15,0 13,9 21,5 22,3 6 3 9 5 SSE 1024,4 21 0 0,0
15.09.2019 07:00:00 17,5 14,2 14,4 21,8 22,3 6 3 10 6 ESE 1024,2 22 0 0,0
15.09.2019 06:00:00 17,5 14,8 14,7 22,1 22,3 7 4 10 5 SSE 1024,2 17 0 0,0
15.09.2019 05:00:00 17,8 15,4 15,2 22,4 22,3 7 4 9 5 SE 1024,4 17 0 0,0
15.09.2019 04:00:00 17,9 15,5 15,9 22,7 22,3 6 4 9 5 S 1024,8 15 0 0,0
15.09.2019 03:00:00 19,0 15,9 15,6 23,1 22,3 2 1 7 4 SSW 1025,0 15 0 0,0
15.09.2019 02:00:00 20,0 16,4 15,9 23,4 22,3 0 0 9 5 N 1025,3 17 0 0,0
15.09.2019 01:00:00 20,3 17,7 17,1 23,8 22,3 6 3 9 5 SW 1025,1 12 0 0,0
15.09.2019 00:00:00 20,9 17,1 17,4 24,1 22,3 0 0 8 4 N 1025,3 15 0 0,0
14.09.2019 23:00:00 22,6 16,8 18,8 24,5 22,3 3 2 8 4 NNE 1025,6 24 0 0,0
14.09.2019 22:00:00 23,3 16,3 20,0 24,9 22,3 5 3 18 10 NE 1025,5 30 0 0,0
14.09.2019 21:00:00 23,2 17,4 21,2 25,1 22,3 4 2 15 8 N 1025,6 30 0 0,0
14.09.2019 20:00:00 23,8 17,3 22,8 25,2 22,3 11 6 25 14 WSW 1025,3 34 30 0,0
14.09.2019 19:00:00 25,7 17,4 26,6 25,1 22,3 19 11 25 14 W 1024,9 33 60 0,0
14.09.2019 18:00:00 28,2 16,5 30,8 24,8 22,3 13 7 19 10 W 1024,7 36 48 0,0
14.09.2019 17:00:00 28,5 15,8 31,7 24,2 22,3 9 5 16 9 WNW 1024,6 36 45 0,0
14.09.2019 16:00:00 29,2 16,7 31,4 23,7 22,4 12 7 28 15 SW 1024,9 27 44 0,0
14.09.2019 15:00:00 28,8 16,0 31,4 23,2 22,4 18 10 25 13 SSW 1025,4 31 5 0,0
14.09.2019 14:00:00 28,5 15,1 28,7 22,8 22,3 18 10 26 14 SSW 1025,9 32 0 0,0
14.09.2019 13:00:00 27,9 14,5 29,0 22,2 22,3 11 6 21 12 W 1025,8 38 4 0,0
14.09.2019 12:00:00 30,3 13,6 31,3 21,6 22,4 14 8 23 12 W 1025,9 14 58 0,0
14.09.2019 11:00:00 25,5 15,8 27,7 21,2 22,3 11 6 15 8 WSW 1026,0 26 60 0,0
14.09.2019 10:00:00 22,4 15,7 24,6 21,1 22,4 6 3 9 5 WNW 1026,5 20 54 0,0
14.09.2019 09:00:00 20,9 15,4 19,4 21,2 22,4 5 3 9 5 W 1026,9 20 52 0,0
14.09.2019 08:00:00 19,3 13,5 15,2 21,5 22,4 3 2 11 6 SSE 1026,7 29 18 0,0
14.09.2019 07:00:00 17,7 13,2 14,3 21,8 22,4 5 3 12 6 ESE 1027,0 24 0 0,0
14.09.2019 06:00:00 18,3 14,8 14,3 22,1 22,4 2 1 9 5 NNE 1027,0 21 0 0,0
14.09.2019 05:00:00 17,4 13,9 14,8 22,4 22,4 5 3 11 6 S 1027,1 23 0 0,0
14.09.2019 04:00:00 17,3 13,8 14,5 22,8 22,4 3 2 6 3 SSW 1027,2 23 0 0,0
14.09.2019 03:00:00 18,7 14,6 15,5 23,2 22,4 0 0 12 7 N 1027,0 24 0 0,0
14.09.2019 02:00:00 18,2 14,3 15,8 23,6 22,4 9 5 13 7 SE 1027,0 25 0 0,0
14.09.2019 01:00:00 20,0 14,6 16,2 24,0 22,4 2 1 6 3 ESE 1027,0 29 0 0,0
14.09.2019 00:00:00 19,7 14,5 16,9 24,5 22,4 5 3 9 5 S 1026,8 26 0 0,0
13.09.2019 23:00:00 20,5 14,8 17,8 25,0 22,4 4 2 9 5 SSE 1026,9 26 0 0,0
13.09.2019 22:00:00 20,9 15,0 18,3 25,4 22,4 4 2 13 7 S 1027,0 27 0 0,0
13.09.2019 21:00:00 23,4 15,2 18,4 25,8 22,4 7 4 11 6 NE 1026,6 43 0 0,0
13.09.2019 20:00:00 23,3 16,3 21,7 26,1 22,5 7 4 16 9 W 1027,2 20 0 0,0
13.09.2019 19:00:00 26,1 12,5 25,6 26,1 22,4 9 5 26 14 W 1027,2 41 31 0,0
13.09.2019 18:00:00 28,8 13,1 31,8 25,8 22,4 19 10 32 17 SSW 1027,2 39 60 0,0
13.09.2019 17:00:00 28,8 14,2 31,5 25,3 22,5 13 7 36 20 S 1027,3 39 31 0,0
13.09.2019 16:00:00 30,8 13,1 35,7 24,5 22,4 16 9 27 15 SSW 1027,9 26 60 0,0
13.09.2019 15:00:00 31,1 12,9 36,0 23,5 22,5 19 10 24 13 SSW 1027,6 22 60 0,0
13.09.2019 14:00:00 30,4 11,9 35,6 22,5 22,5 12 6 17 9 WSW 1027,9 21 60 0,0
13.09.2019 13:00:00 29,2 15,3 33,8 21,6 22,5 10 5 14 8 WSW 1028,3 19 60 0,0
13.09.2019 12:00:00 26,1 14,9 29,9 20,9 22,5 5 3 14 8 WNW 1028,5 20 60 0,0

tt = Température de l'air
td = dewpoint
tt 5cm = Température de l'air 5cm
tt -20cm = Température de l'air -20cm
tt -100cm = Température de l'air -100cm
ff = Vitesse du vent
fx = gusts
dd = Direction du vent
ppp = reduced air pressure
vv = visibility
sd = Ensoleillement
rr = Quantités de précipitations

stations d'obs. à proximité